STARLINK-32144 (60269 NORAD) Tracking and Keplerian Element Data

This shows tracking and keplerian element data for the satellite.

Feedback or suggestion? Click here.




ElementValue
Catalog60269
NameSTARLINK-32144
Epoch Orbit1314
Epoch Day286.2666289
Epoch Year2024
RAAN278.4776
Inclination53.1573
Eccentricity0.00013
Argument of Perigee99.7378
Mean Anonmoly260.3773
Mean Motion15.39612141
Decay Rate0.00017981
L11 60269U 24131Q 24286.26662890 .00017981 00000+0 45855-3 0 9990
L22 60269 53.1573 278.4776 0001300 99.7378 260.3773 15.39612141 13147



Live tracking and technical data element details for STARLINK-32144 (NORAD 60269). STARLINK-32144 can be tracked NOW for your location showing map with azimuth and elevation plus other details from your city location.







IsCatalogInMostPopularTable: catalog: 60269, numindb: 14
Update: records affected: 1



GetName: 60269 STARLINK-32144

Hit Count: updated at: Thu, 23 Jan 2025 13:21:34 GMT